Regional Weather Roundup
Issued by NWS

Home | Current Version | Previous Version | Graphics & Text | Print | Product List | Glossary On
Versions: 1 2 3 4 5 6 7 8 9 10 11 12 13 14 15 16 17 18 19 20 21 22 23 24 25 26 27 28 29 30 31 32 33 34 35 36 37 38 39 40 41 42 43 44 45 46 47 48 49 50
000
ASUS45 KABQ 010210
RWRNM
NEW MEXICO REGIONAL WEATHER ROUNDUP
NATIONAL WEATHER SERVICE ALBUQUERQUE NM
800 PM MDT TUE JUN 30 2015

NOTE: "FAIR" MEANS FEW OR NO CLOUDS BELOW 12,000 FEET AGL WITH NO
       SIGNIFICANT WEATHER OR OBSTRUCTIONS TO VISION.

      THIS PRODUCT IS RELEASED AS TWO VERSIONS.  ONE VERSION NEAR
      THE TOP OF THE HOUR CONTAINING PRELIMINARY DATA FROM ALBUQUERQUE
      AND OTHER STATIONS.  A FINAL VERSION WITH ADDITIONAL DATA IS
      ISSUED ABOUT 10 MINUTES AFTER THE HOUR.

NMZ501-503-504-510>518-010300-
NORTHWEST PLATEAU/NORTHCENTRAL MOUNTAINS

CITY           SKY/WX    TMP DP  RH WIND       PRES   REMARKS
FARMINGTON     CLEAR     91  45  20 SW6       30.03R
SANTA FE       CLEAR     85  43  22 SE15G22   30.15R
TAOS           PTCLDY    81  46  30 SE12      30.21R

$$
NMZ402-403-502-505>509-010300-
WESTCENTRAL MOUNTAINS/SOUTHWEST MOUNTAINS

CITY           SKY/WX    TMP DP  RH WIND       PRES   REMARKS
GALLUP         CLEAR     90  36  14 N13       30.12R
SILVER CITY      N/A     84  45  24 SE10      30.10R

$$
NMZ407-409-411-412-010300-
SOUTHERN DESERTS

CITY           SKY/WX    TMP DP  RH WIND       PRES   REMARKS
DEMING         CLEAR     89  49  25 SE15      30.00R
HOLLOMAN AFB   MOCLDY    89  47  23 S16G30    29.98R
ALAMOGORDO     PTCLDY    88  41  19 E13G22    30.00S
T OR C         CLEAR     90  41  18 E9        30.03R

$$
NMZ519>523-010300-
CENTRAL VALLEYS/CENTRAL HIGHLANDS

CITY           SKY/WX    TMP DP  RH WIND       PRES   REMARKS
ALBUQUERQUE    PTCLDY    91  45  20 SW9       30.06R
DOUBLE EAGLE   PTCLDY    88  46  23 CALM      30.11R
CLINES CORNERS CLEAR     76  42  29 SE12      30.24R
BELEN          FAIR      91  38  15 S10       30.05R
SOCORRO        NOT AVBL

$$
NMZ524>526-539-540-010300-
SOUTHCENTRAL MOUNTAINS

CITY           SKY/WX    TMP DP  RH WIND       PRES   REMARKS
RUIDOSO        CLEAR     72  48  43 SE8       30.28R

$$
NMZ527>531-010300-
NORTHEAST HIGHLANDS/NORTHEAST PLAINS

CITY           SKY/WX    TMP DP  RH WIND       PRES   REMARKS
LAS VEGAS      CLEAR     69  54  58 S7        30.24R
RATON          CLEAR     76  53  44 S8        30.16R
CLAYTON        CLEAR     79  49  34 S8        30.08R

$$
NMZ532>537-010300-
EASTCENTRAL PLAINS

CITY           SKY/WX    TMP DP  RH WIND       PRES   REMARKS
TUCUMCARI      CLEAR     85  47  26 S9        30.02R
CANNON AFB     CLEAR     80  53  39 SE9       30.09R
CLOVIS AIRPORT CLEAR     79  50  36 SE9         N/A

$$
NMZ028-029-538-010300-
SOUTHEAST PLAINS

CITY           SKY/WX    TMP DP  RH WIND       PRES   REMARKS
ROSWELL        PTCLDY    85  55  35 S8        30.02R
ARTESIA        CLEAR     86  55  35 SE7       30.03S
CARLSBAD       PTCLDY    86  53  32 S10       30.01R
HOBBS          CLEAR     81  55  41 SE9       30.06R


$$



USA.gov is the U.S. government's official web portal to all federal, state and local government web resources and services.